Regional Weather Roundup
Issued by NWS

Home | Current Version | Previous Version | Text Only | Print | Product List | Glossary On
Versions: 1 2 3 4 5 6 7 8 9 10 11 12 13 14 15 16 17 18 19 20 21 22 23 24 25 26 27 28 29 30 31 32 33 34 35 36 37 38 39 40 41 42 43 44 45 46 47 48 49 50
000
ASUS45 KSLC 270510
RWRUT

UTAH REGIONAL WEATHER ROUNDUP
NATIONAL WEATHER SERVICE SALT LAKE CITY UT
1000 PM MST WED NOV 26 2014

UTZ001>011-023>025-270600-

NORTHERN UTAH

CITY           SKY/WX    TMP DP  RH WIND       PRES   REMARKS
BRIGHAM CITY   CLEAR     39  31  73 N10       30.35S WCI  32
HILL AFB       CLEAR     41  28  59 S9        30.36R
LOGAN          CLEAR     32  27  81 E6        30.34R WCI  26
OGDEN          CLEAR     44  28  53 S12       30.35R
PROVO AIRPORT  CLEAR     34  28  80 E5        30.41S WCI  30
SALT LAKE CITY CLEAR     43  28  55 SE9       30.35S
VERNAL         PTCLDY    35  26  69 CALM      30.39R
WENDOVER       CLEAR     37  27  65 CALM      30.32S
HEBER CITY     CLEAR     28  25  86 CALM      30.43R
WEST JORDAN    CLEAR     46  34  61 S14       30.37S

$$

UTZ012>022-026-027-270600-

SOUTHERN/CENTRAL UTAH

CITY           SKY/WX    TMP DP  RH WIND       PRES   REMARKS
BLANDING       CLEAR     34  20  57 N7        30.51S WCI  28
BRYCE CANYON   CLEAR     22  17  81 W9        30.51S WCI  12
CEDAR CITY     PTCLDY    34  17  50 S3        30.43R
DELTA          PTCLDY    33  27  77 NW3       30.40R
MILFORD        CLEAR     32  21  64 S5        30.41R WCI  27
MOAB/CYNLANDS  CLEAR     31  15  52 SW5       30.41R WCI  26
PRICE          CLEAR     35  24  64 N8        30.42S WCI  29
ST GEORGE      CLEAR     45  12  26 SW3       30.39S
KANAB          CLEAR     32  18  55 NE8       30.47R WCI  25

$$

REGIONAL REPORTS     COLORADO/ARIZONA

CITY           SKY/WX    TMP DP  RH WIND       PRES   REMARKS
CRAIG, CO      CLEAR     31  25  78 W3        30.41R
GRAND JUNCTION CLEAR     33  23  66 E3        30.43R
RIFLE          PTCLDY    27  22  81 CALM      30.47R
MONTROSE       CLEAR     28  22  78 SE6       30.47R WCI  22
CORTEZ         CLEAR     30  21  69 E10       30.46R WCI  21
PAGE, AZ       CLEAR     44  19  36 CALM      30.41R
GRAND CANYON   PTCLDY    21   7  54 NE5       30.48R WCI  15
KINGMAN        CLEAR     42  17  36 S6        30.33R
FLAGSTAFF      PTCLDY    26  13  57 E3        30.48R

$$

REGIONAL REPORTS    NEVADA/IDAHO/WYOMING

CITY           SKY/WX    TMP DP  RH WIND       PRES   REMARKS
LAS VEGAS, NV  CLEAR     55  19  24 SW6       30.28R
ELY            CLEAR     29  13  51 S13       30.46R WCI  19
ELKO           CLEAR     33  28  81 CALM      30.34S
POCATELLO, ID  CLEAR     49  30  48 S9        30.26F
BURLEY         PTCLDY    48  30  49 SW14      30.24F
EVANSTON, WY   PTCLDY    35  21  56 S13       30.39S WCI  26
ROCK SPRINGS   PTCLDY    36  25  64 S8        30.37R WCI  30

$$


USA.gov is the U.S. government's official web portal to all federal, state and local government web resources and services.